SWA2990 KMAF-KDAL

Flight info

Callsign SWA2990
Flight time 1h 2m
Altitude 37000
Route BGTOE BACHR4
Aircraft B737/M-SADE2E3GIJ4RWZ/LB1D1

Departure

Time 2026-04-29 20:57
Airport Midland International Air and Space Port (KMAF)

Arrival

Time 2026-04-29 22:00
Airport Dallas Love Field (KDAL)
Time Latitude Longitude Altitude Speed Heading
2026-04-29 20:38 31.93705 -102.20696 2868 ft 0 kts 265°
2026-04-29 20:48 31.93706 -102.20682 2868 ft 4 kts 264°
2026-04-29 20:48 31.93708 -102.20657 2868 ft 0 kts 264°
2026-04-29 20:51 31.93712 -102.20660 2868 ft 1 kts 322°
2026-04-29 20:51 31.93738 -102.20639 2868 ft 11 kts 34°
2026-04-29 20:51 31.93808 -102.20585 2868 ft 12 kts 34°
2026-04-29 20:51 31.93885 -102.20560 2868 ft 12 kts 352°
2026-04-29 20:52 31.93965 -102.20574 2868 ft 12 kts 356°
2026-04-29 20:52 31.94045 -102.20574 2868 ft 11 kts
2026-04-29 20:52 31.94126 -102.20573 2868 ft 13 kts 357°
2026-04-29 20:52 31.94222 -102.20591 2867 ft 15 kts 329°
2026-04-29 20:53 31.94277 -102.20703 2867 ft 16 kts 296°
2026-04-29 20:53 31.94321 -102.20820 2868 ft 15 kts 293°
2026-04-29 20:53 31.94366 -102.20931 2869 ft 15 kts 297°
2026-04-29 20:53 31.94408 -102.21038 2869 ft 14 kts 293°
2026-04-29 20:54 31.94481 -102.21240 2874 ft 13 kts 293°
2026-04-29 20:54 31.94521 -102.21348 2874 ft 15 kts 294°
2026-04-29 20:54 31.94562 -102.21456 2876 ft 14 kts 293°
2026-04-29 20:55 31.94600 -102.21559 2877 ft 13 kts 293°
2026-04-29 20:55 31.94638 -102.21655 2876 ft 13 kts 311°
2026-04-29 20:55 31.94721 -102.21643 2874 ft 13 kts 24°
2026-04-29 20:55 31.94760 -102.21611 2872 ft 0 kts 114°
2026-04-29 20:56 31.94733 -102.21542 2873 ft 37 kts 115°
2026-04-29 20:57 31.94531 -102.21002 2873 ft 106 kts 114°
2026-04-29 20:57 31.94158 -102.20003 2905 ft 156 kts 111°
2026-04-29 20:57 31.93708 -102.18824 3617 ft 155 kts 111°
2026-04-29 20:57 31.93285 -102.17667 4387 ft 155 kts 110°
2026-04-29 20:58 31.92825 -102.16426 4763 ft 181 kts 110°
2026-04-29 20:58 31.92489 -102.14913 5095 ft 203 kts 87°
2026-04-29 20:58 31.92678 -102.13130 5276 ft 236 kts 81°
2026-04-29 20:58 31.92930 -102.11087 5482 ft 269 kts 81°
2026-04-29 20:59 31.93211 -102.08810 5945 ft 290 kts 82°
2026-04-29 20:59 31.93508 -102.06393 6499 ft 307 kts 82°
2026-04-29 20:59 31.93817 -102.03869 7228 ft 314 kts 81°
2026-04-29 20:59 31.94126 -102.01336 8027 ft 319 kts 81°
2026-04-29 21:00 31.94444 -101.98728 8912 ft 325 kts 81°
2026-04-29 21:00 31.94767 -101.96069 9786 ft 332 kts 81°
2026-04-29 21:00 31.95098 -101.93346 10521 ft 343 kts 81°
2026-04-29 21:00 31.95443 -101.90503 11136 ft 357 kts 81°
2026-04-29 21:01 31.95796 -101.87579 11936 ft 364 kts 81°
2026-04-29 21:01 31.96153 -101.84616 12844 ft 367 kts 81°
2026-04-29 21:01 31.96512 -101.81621 13726 ft 372 kts 81°
2026-04-29 21:01 31.96876 -101.78581 14507 ft 378 kts 81°
2026-04-29 21:02 31.97240 -101.75538 15313 ft 383 kts 81°
2026-04-29 21:02 31.97613 -101.72416 16175 ft 387 kts 81°
2026-04-29 21:02 31.97988 -101.69257 17021 ft 392 kts 81°
2026-04-29 21:02 31.98369 -101.66051 17875 ft 397 kts 82°
2026-04-29 21:03 31.98753 -101.62812 18676 ft 402 kts 82°
2026-04-29 21:03 31.99143 -101.59515 19306 ft 411 kts 82°
2026-04-29 21:03 31.99540 -101.56143 19924 ft 420 kts 82°
2026-04-29 21:03 31.99945 -101.52710 20577 ft 427 kts 82°
2026-04-29 21:04 32.00355 -101.49214 21222 ft 434 kts 82°
2026-04-29 21:04 32.00766 -101.45710 21844 ft 442 kts 82°
2026-04-29 21:04 32.01189 -101.42094 22471 ft 449 kts 82°
2026-04-29 21:04 32.01617 -101.38426 23079 ft 456 kts 82°
2026-04-29 21:05 32.02051 -101.34695 23651 ft 463 kts 82°
2026-04-29 21:05 32.02490 -101.30912 24183 ft 469 kts 82°
2026-04-29 21:05 32.02931 -101.27096 24793 ft 471 kts 82°
2026-04-29 21:05 32.03374 -101.23256 25373 ft 475 kts 81°
2026-04-29 21:06 32.03820 -101.19384 25924 ft 479 kts 81°
2026-04-29 21:06 32.04117 -101.16799 26272 ft 483 kts 81°
2026-04-29 21:06 32.04715 -101.11576 26984 ft 488 kts 81°
2026-04-29 21:06 32.05170 -101.07591 27521 ft 492 kts 81°
2026-04-29 21:07 32.05627 -101.03579 28053 ft 497 kts 81°
2026-04-29 21:07 32.06086 -100.99527 28580 ft 501 kts 81°
2026-04-29 21:07 32.06392 -100.96825 28926 ft 503 kts 81°
2026-04-29 21:07 32.07013 -100.91326 29625 ft 509 kts 81°
2026-04-29 21:08 32.07480 -100.87173 30106 ft 513 kts 81°
2026-04-29 21:08 32.07790 -100.84412 30396 ft 515 kts 81°
2026-04-29 21:08 32.08260 -100.80212 30819 ft 518 kts 81°
2026-04-29 21:08 32.08885 -100.74606 31376 ft 522 kts 80°
2026-04-29 21:09 32.09358 -100.70352 31816 ft 524 kts 80°
2026-04-29 21:09 32.09828 -100.66096 32362 ft 523 kts 80°
2026-04-29 21:09 32.10139 -100.63280 32762 ft 521 kts 80°
2026-04-29 21:09 32.10761 -100.57623 33503 ft 519 kts 79°
2026-04-29 21:10 32.11068 -100.54825 33842 ft 519 kts 79°
2026-04-29 21:10 32.11530 -100.50603 34225 ft 520 kts 79°
2026-04-29 21:10 32.11992 -100.46371 34618 ft 520 kts 79°
2026-04-29 21:10 32.12452 -100.42146 35053 ft 518 kts 79°
2026-04-29 21:11 32.13056 -100.36570 35602 ft 517 kts 79°
2026-04-29 21:11 32.13362 -100.33734 35862 ft 516 kts 79°
2026-04-29 21:11 32.13815 -100.29533 36254 ft 515 kts 79°
2026-04-29 21:11 32.14410 -100.23992 36817 ft 513 kts 79°
2026-04-29 21:12 32.14705 -100.21235 36998 ft 512 kts 79°
2026-04-29 21:12 32.15596 -100.12880 36980 ft 511 kts 79°
2026-04-29 21:13 32.16477 -100.04566 36989 ft 511 kts 79°
2026-04-29 21:13 32.17352 -99.96253 36993 ft 511 kts 79°
2026-04-29 21:14 32.18218 -99.87981 36986 ft 512 kts 79°
2026-04-29 21:14 32.18735 -99.79590 37005 ft 514 kts 88°
2026-04-29 21:15 32.18605 -99.71140 36996 ft 515 kts 90°
2026-04-29 21:15 32.18411 -99.62697 37006 ft 514 kts 89°
2026-04-29 21:16 32.18280 -99.54307 36978 ft 502 kts 89°
2026-04-29 21:16 32.18230 -99.50296 36980 ft 489 kts 89°
2026-04-29 21:16 32.18184 -99.46344 36980 ft 475 kts 88°
2026-04-29 21:16 32.18139 -99.42495 36985 ft 463 kts 88°
2026-04-29 21:17 32.18079 -99.37478 37002 ft 455 kts 88°
2026-04-29 21:17 32.18005 -99.31189 37040 ft 469 kts 88°
2026-04-29 21:18 32.17904 -99.23353 36652 ft 482 kts 89°
2026-04-29 21:18 32.17849 -99.19431 35992 ft 488 kts 89°
2026-04-29 21:18 32.17791 -99.15387 35210 ft 497 kts 89°
2026-04-29 21:18 32.17731 -99.11274 34432 ft 506 kts 89°
2026-04-29 21:19 32.17668 -99.07095 33730 ft 511 kts 89°
2026-04-29 21:19 32.17603 -99.02913 33279 ft 507 kts 89°
2026-04-29 21:19 32.17536 -98.98772 32930 ft 502 kts 90°
2026-04-29 21:19 32.17470 -98.94673 32555 ft 498 kts 90°
2026-04-29 21:20 32.17403 -98.90603 32130 ft 495 kts 90°
2026-04-29 21:20 32.17337 -98.86547 31696 ft 493 kts 90°
2026-04-29 21:20 32.17270 -98.82564 31285 ft 491 kts 90°
2026-04-29 21:20 32.17201 -98.78544 30885 ft 487 kts 91°
2026-04-29 21:21 32.17156 -98.74580 30378 ft 480 kts 88°
2026-04-29 21:21 32.17374 -98.70658 29674 ft 478 kts 82°
2026-04-29 21:21 32.17745 -98.66784 29005 ft 472 kts 81°
2026-04-29 21:21 32.18149 -98.62960 28363 ft 467 kts 81°
2026-04-29 21:22 32.18535 -98.59178 27742 ft 462 kts 82°
2026-04-29 21:22 32.18892 -98.55437 27131 ft 457 kts 83°
2026-04-29 21:22 32.19226 -98.51725 26529 ft 452 kts 83°
2026-04-29 21:22 32.19548 -98.48058 25932 ft 447 kts 83°
2026-04-29 21:23 32.19862 -98.44474 25364 ft 443 kts 83°
2026-04-29 21:23 32.20179 -98.40877 24830 ft 438 kts 84°
2026-04-29 21:23 32.20493 -98.37317 24298 ft 433 kts 84°
2026-04-29 21:23 32.20804 -98.33799 23757 ft 429 kts 84°
2026-04-29 21:24 32.21111 -98.30300 23074 ft 427 kts 84°
2026-04-29 21:24 32.21414 -98.26840 22524 ft 420 kts 84°
2026-04-29 21:24 32.21711 -98.23442 22019 ft 412 kts 84°
2026-04-29 21:24 32.22001 -98.20106 21491 ft 405 kts 84°
2026-04-29 21:25 32.22282 -98.16867 20960 ft 400 kts 84°
2026-04-29 21:25 32.22562 -98.13627 20438 ft 394 kts 84°
2026-04-29 21:25 32.22837 -98.10432 19932 ft 388 kts 84°
2026-04-29 21:25 32.23107 -98.07291 19430 ft 382 kts 84°
2026-04-29 21:26 32.23372 -98.04198 18926 ft 376 kts 84°
2026-04-29 21:26 32.23632 -98.01150 18442 ft 370 kts 84°
2026-04-29 21:26 32.23888 -97.98150 17896 ft 364 kts 84°
2026-04-29 21:26 32.24140 -97.95186 17279 ft 361 kts 84°
2026-04-29 21:27 32.24388 -97.92259 16851 ft 358 kts 84°
2026-04-29 21:27 32.24635 -97.89330 16452 ft 358 kts 84°
2026-04-29 21:27 32.24881 -97.86411 16047 ft 356 kts 84°
2026-04-29 21:27 32.25122 -97.83547 15666 ft 354 kts 84°
2026-04-29 21:28 32.25359 -97.80663 15280 ft 352 kts 85°
2026-04-29 21:28 32.25593 -97.77797 14899 ft 350 kts 85°
2026-04-29 21:28 32.25823 -97.74949 14525 ft 347 kts 85°
2026-04-29 21:28 32.26052 -97.72117 14149 ft 345 kts 85°
2026-04-29 21:29 32.26279 -97.69306 13777 ft 343 kts 85°
2026-04-29 21:29 32.26505 -97.66508 13370 ft 341 kts 85°
2026-04-29 21:29 32.26728 -97.63733 12988 ft 338 kts 85°
2026-04-29 21:29 32.26946 -97.61021 12626 ft 335 kts 85°
2026-04-29 21:30 32.27164 -97.58293 12270 ft 331 kts 85°
2026-04-29 21:30 32.27380 -97.55596 11911 ft 328 kts 85°
2026-04-29 21:30 32.27593 -97.52929 11564 ft 325 kts 85°
2026-04-29 21:30 32.27802 -97.50289 11225 ft 321 kts 85°
2026-04-29 21:31 32.28266 -97.47734 10930 ft 316 kts 67°
2026-04-29 21:31 32.29186 -97.45410 10770 ft 310 kts 63°
2026-04-29 21:31 32.30147 -97.43134 10581 ft 310 kts 63°
2026-04-29 21:31 32.31114 -97.40858 10401 ft 311 kts 63°
2026-04-29 21:32 32.32069 -97.38596 10222 ft 312 kts 63°
2026-04-29 21:32 32.33027 -97.36309 10029 ft 307 kts 63°
2026-04-29 21:32 32.33959 -97.34067 9832 ft 301 kts 64°
2026-04-29 21:32 32.34875 -97.31859 9630 ft 299 kts 64°
2026-04-29 21:33 32.35789 -97.29652 9450 ft 299 kts 64°
2026-04-29 21:33 32.36704 -97.27437 9278 ft 300 kts 64°
2026-04-29 21:33 32.37621 -97.25215 9105 ft 300 kts 64°
2026-04-29 21:33 32.38532 -97.23004 9021 ft 300 kts 64°
2026-04-29 21:34 32.39445 -97.20766 9023 ft 302 kts 64°
2026-04-29 21:34 32.40344 -97.18558 9010 ft 301 kts 64°
2026-04-29 21:34 32.41248 -97.16336 9000 ft 299 kts 64°
2026-04-29 21:34 32.42147 -97.14125 9015 ft 298 kts 64°
2026-04-29 21:35 32.43047 -97.11913 9015 ft 299 kts 64°
2026-04-29 21:35 32.43948 -97.09696 9014 ft 299 kts 64°
2026-04-29 21:35 32.44849 -97.07478 9013 ft 300 kts 64°
2026-04-29 21:35 32.45752 -97.05239 8851 ft 306 kts 65°
2026-04-29 21:36 32.46663 -97.02937 8508 ft 309 kts 65°
2026-04-29 21:36 32.47566 -97.00645 8183 ft 305 kts 65°
2026-04-29 21:36 32.48446 -96.98412 7878 ft 301 kts 65°
2026-04-29 21:36 32.49326 -96.96180 7573 ft 297 kts 65°
2026-04-29 21:37 32.50196 -96.93976 7263 ft 293 kts 65°
2026-04-29 21:37 32.51054 -96.91801 6971 ft 290 kts 65°
2026-04-29 21:37 32.51903 -96.89647 6678 ft 287 kts 65°
2026-04-29 21:37 32.52761 -96.87524 6378 ft 284 kts 65°
2026-04-29 21:38 32.53630 -96.85438 6086 ft 281 kts 64°
2026-04-29 21:38 32.54491 -96.83372 5791 ft 278 kts 64°
2026-04-29 21:38 32.55341 -96.81327 5501 ft 275 kts 64°
2026-04-29 21:38 32.56165 -96.79342 5254 ft 268 kts 64°
2026-04-29 21:39 32.57049 -96.77464 4941 ft 255 kts 50°
2026-04-29 21:39 32.58294 -96.76063 4661 ft 238 kts 40°
2026-04-29 21:39 32.59503 -96.74813 4378 ft 225 kts 39°
2026-04-29 21:39 32.60658 -96.73608 4122 ft 217 kts 40°
2026-04-29 21:40 32.61770 -96.72440 3869 ft 210 kts 40°
2026-04-29 21:40 32.62837 -96.71312 3621 ft 201 kts 40°
2026-04-29 21:40 32.63856 -96.70230 3390 ft 192 kts 41°
2026-04-29 21:40 32.64831 -96.69192 3171 ft 184 kts 41°
2026-04-29 21:41 32.65753 -96.68212 2953 ft 176 kts 40°
2026-04-29 21:41 32.66712 -96.67379 2732 ft 169 kts 21°
2026-04-29 21:41 32.67834 -96.67081 2579 ft 164 kts
2026-04-29 21:41 32.68948 -96.67189 2532 ft 161 kts 351°
2026-04-29 21:42 32.69990 -96.67669 2473 ft 163 kts 334°
2026-04-29 21:42 32.70897 -96.68489 2463 ft 165 kts 323°
2026-04-29 21:42 32.71752 -96.69423 2464 ft 170 kts 321°
2026-04-29 21:42 32.72607 -96.70403 2346 ft 169 kts 321°
2026-04-29 21:43 32.73425 -96.71356 2216 ft 157 kts 321°
2026-04-29 21:43 32.74179 -96.72236 2219 ft 152 kts 322°
2026-04-29 21:43 32.74945 -96.73126 2234 ft 155 kts 321°
2026-04-29 21:43 32.75683 -96.73987 2202 ft 145 kts 321°
2026-04-29 21:44 32.76374 -96.74793 2191 ft 136 kts 321°
2026-04-29 21:44 32.77040 -96.75568 2183 ft 133 kts 323°
2026-04-29 21:44 32.77711 -96.76349 2200 ft 137 kts 322°
2026-04-29 21:44 32.78399 -96.77150 2074 ft 138 kts 322°
2026-04-29 21:45 32.79071 -96.77937 1897 ft 134 kts 321°
2026-04-29 21:45 32.79729 -96.78702 1735 ft 131 kts 321°
2026-04-29 21:45 32.80369 -96.79447 1559 ft 126 kts 321°
2026-04-29 21:45 32.81002 -96.80186 1399 ft 129 kts 320°
2026-04-29 21:46 32.81650 -96.80939 1218 ft 132 kts 319°
2026-04-29 21:46 32.82287 -96.81687 1030 ft 125 kts 321°
2026-04-29 21:46 32.82905 -96.82407 831 ft 124 kts 323°
2026-04-29 21:46 32.83511 -96.83109 692 ft 123 kts 322°
2026-04-29 21:47 32.84179 -96.83906 1076 ft 144 kts 319°
2026-04-29 21:47 32.85086 -96.84633 1833 ft 164 kts 346°
2026-04-29 21:47 32.86183 -96.84927 2968 ft 169 kts 355°
2026-04-29 21:47 32.87430 -96.84833 3528 ft 198 kts 16°
2026-04-29 21:48 32.88779 -96.84058 3805 ft 235 kts 37°
2026-04-29 21:48 32.89889 -96.82475 4144 ft 268 kts 64°
2026-04-29 21:48 32.90857 -96.80484 4814 ft 287 kts 50°
2026-04-29 21:48 32.92177 -96.78700 5008 ft 294 kts 46°
2026-04-29 21:49 32.93561 -96.76919 5025 ft 291 kts 46°
2026-04-29 21:49 32.94820 -96.75066 5014 ft 287 kts 61°
2026-04-29 21:49 32.95612 -96.72938 5016 ft 274 kts 69°
2026-04-29 21:49 32.96275 -96.70876 5013 ft 259 kts 69°
2026-04-29 21:50 32.96844 -96.68902 5005 ft 246 kts 81°
2026-04-29 21:50 32.96723 -96.66940 4999 ft 233 kts 113°
2026-04-29 21:50 32.95875 -96.65365 4782 ft 222 kts 134°
2026-04-29 21:50 32.94877 -96.64032 4542 ft 216 kts 134°
2026-04-29 21:51 32.93859 -96.62737 4275 ft 212 kts 135°
2026-04-29 21:51 32.92842 -96.61470 3951 ft 210 kts 135°
2026-04-29 21:51 32.90778 -96.59081 3291 ft 204 kts 135°
2026-04-29 21:52 32.89696 -96.58011 2979 ft 202 kts 147°
2026-04-29 21:52 32.88334 -96.57681 2685 ft 204 kts 186°
2026-04-29 21:52 32.87080 -96.58385 2441 ft 198 kts 218°
2026-04-29 21:52 32.86091 -96.59442 2264 ft 183 kts 223°
2026-04-29 21:53 32.85195 -96.60422 2204 ft 171 kts 222°
2026-04-29 21:53 32.84322 -96.61395 2220 ft 173 kts 223°
2026-04-29 21:53 32.83450 -96.62379 2204 ft 173 kts 227°
2026-04-29 21:53 32.82627 -96.63421 2216 ft 171 kts 227°
2026-04-29 21:54 32.81830 -96.64451 2208 ft 168 kts 228°
2026-04-29 21:54 32.81037 -96.65480 2205 ft 169 kts 231°
2026-04-29 21:54 32.80305 -96.66570 2252 ft 164 kts 232°
2026-04-29 21:54 32.79606 -96.67605 2192 ft 157 kts 233°
2026-04-29 21:55 32.78951 -96.68575 2171 ft 147 kts 235°
2026-04-29 21:55 32.78420 -96.69612 2240 ft 153 kts 243°
2026-04-29 21:55 32.77889 -96.70718 2192 ft 151 kts 249°
2026-04-29 21:55 32.77524 -96.71873 2220 ft 148 kts 253°
2026-04-29 21:56 32.77286 -96.73045 2212 ft 145 kts 263°
2026-04-29 21:56 32.77085 -96.74231 2206 ft 147 kts 263°
2026-04-29 21:56 32.77147 -96.75384 2171 ft 134 kts 311°
2026-04-29 21:56 32.77840 -96.76110 2203 ft 140 kts 320°
2026-04-29 21:57 32.78416 -96.77049 2096 ft 141 kts 314°
2026-04-29 21:57 32.79053 -96.77901 1925 ft 136 kts 321°
2026-04-29 21:57 32.79702 -96.78670 1734 ft 130 kts 320°
2026-04-29 21:57 32.80330 -96.79402 1562 ft 126 kts 320°
2026-04-29 21:58 32.80969 -96.80145 1408 ft 131 kts 320°
2026-04-29 21:58 32.81621 -96.80908 1231 ft 129 kts 321°
2026-04-29 21:58 32.82249 -96.81643 974 ft 125 kts 320°
2026-04-29 21:58 32.82853 -96.82351 925 ft 121 kts 323°
2026-04-29 21:59 32.83478 -96.83067 730 ft 128 kts 321°
2026-04-29 21:59 32.84117 -96.83812 564 ft 129 kts 320°
2026-04-29 21:59 32.84723 -96.84515 488 ft 101 kts 314°
2026-04-29 21:59 32.85079 -96.84927 485 ft 54 kts 315°
2026-04-29 22:00 32.85294 -96.85178 488 ft 35 kts 316°
2026-04-29 22:00 32.85372 -96.85289 485 ft 7 kts 257°
2026-04-29 22:00 32.85335 -96.85336 482 ft 9 kts 224°
2026-04-29 22:00 32.85285 -96.85348 482 ft 6 kts 146°
2026-04-29 22:01 32.85255 -96.85310 484 ft 6 kts 135°
2026-04-29 22:01 32.85223 -96.85275 477 ft 6 kts 136°
2026-04-29 22:01 32.85192 -96.85240 484 ft 6 kts 136°
2026-04-29 22:01 32.85162 -96.85206 484 ft 6 kts 136°
2026-04-29 22:02 32.85133 -96.85172 484 ft 6 kts 135°
2026-04-29 22:02 32.85105 -96.85138 480 ft 6 kts 134°
2026-04-29 22:02 32.85077 -96.85104 478 ft 6 kts 135°
2026-04-29 22:02 32.85049 -96.85073 484 ft 6 kts 136°
2026-04-29 22:03 32.85022 -96.85042 484 ft 5 kts 136°
2026-04-29 22:03 32.84995 -96.85012 484 ft 5 kts 136°
2026-04-29 22:03 32.84968 -96.84982 484 ft 5 kts 136°
2026-04-29 22:03 32.84933 -96.84942 484 ft 9 kts 136°
2026-04-29 22:04 32.84878 -96.84878 483 ft 13 kts 135°
2026-04-29 22:04 32.84856 -96.84851 481 ft 5 kts 135°
2026-04-29 22:04 32.84822 -96.84811 483 ft 9 kts 135°
2026-04-29 22:04 32.84761 -96.84824 479 ft 12 kts 223°
2026-04-29 22:05 32.84734 -96.84892 476 ft 4 kts 213°
2026-04-29 22:05 32.84695 -96.84893 479 ft 8 kts 180°
2026-04-29 22:05 32.84645 -96.84894 479 ft 0 kts 180°